Flag for Canada Weather past 2 weeks in Kawartha Lakes, Ontario, Canada

39 °F


Feels Like: 37 °F
Forecast: 34 / 52 °F
Wind: 3 mph from North

Location: Muskoka

Current Time: Oct 10, 2015 at 12:43:10 AM

Latest Report: Oct 10, 2015 at 12:00 AM

Visibility: 9 mi

Pressure: 30.14 "Hg

Humidity: 100%

Dew point: 39 °F

Location of Kawartha LakesLocation

Historic Weather in Kawartha Lakes — Graph


Kawartha Lakes temperature yesterday

Maximum temperature yesterday: 52 °F (at 3:01 PM)
Minimum temperature yesterday: 41 °F (at 8:00 PM)
Average temperature yesterday: 47 °F

Past Weeks' High & Low Weather Summary

High73 °F (Sep 27, 2:00 PM)100% (Sep 27, 4:00 AM)30.55 "Hg (Sep 27, 4:00 AM)
Low32 °F (Oct 1, 7:00 AM)35% (Oct 2, 3:00 PM)29.77 "Hg (Oct 9, 6:55 AM)
Average52 °F77%30.22 "Hg
* Reported Sep 24 11:00 PM — Oct 9 11:00 PM, Kawartha Lakes, Weather by CustomWeather, © 2015

Note: Actual official high and low records may vary slightly from our data, if they occured in-between our weather recording intervals... More about our weather records


Kawartha Lakes weather history for previous 24 hours

Time TempWeatherWind HumidityBarometerVisibility
11:00 PM
Fri, Oct 9
41 °FClear.2 mph93%30.11 "Hg9 mi
10:00 PM43 °FClear.6 mph87%30.09 "Hg9 mi
9:00 PM41 °FPassing clouds.3 mph100%30.06 "Hg9 mi
8:00 PM41 °FClear.2 mph100%30.05 "Hg9 mi
7:00 PM46 °FSunny.5 mph87%30.02 "Hg9 mi
6:00 PM50 °FOvercast.12 mph76%29.99 "Hg9 mi
5:00 PM50 °FOvercast.8 mph82%29.96 "Hg9 mi
4:00 PM50 °FMostly cloudy.13 mph76%29.94 "Hg9 mi
3:04 PM52 °FOvercast.18 mph77%29.90 "Hg9 mi
3:01 PM52 °FMostly cloudy.16 mph77%29.90 "Hg9 mi
2:00 PM50 °FMostly cloudy.16 mph88%29.88 "Hg9 mi
1:00 PM50 °FOvercast.16 mph88%29.86 "Hg9 mi
12:00 PM50 °FLow clouds.10 mph100%29.83 "Hg9 mi
11:48 AM50 °FLow clouds.10 mph100%29.83 "Hg9 mi
11:02 AM50 °FFog.12 mph100%29.79 "Hg1 mi
10:00 AM50 °FFog.No wind100%29.78 "Hg1 mi
9:00 AM48 °FFog.2 mph100%29.77 "Hg1 mi
8:00 AM46 °FFog.2 mph100%29.77 "Hg2 mi
7:59 AM46 °FFog.2 mph100%29.77 "Hg2 mi
7:00 AM46 °FLight rain. Fog.3 mph100%29.77 "Hg2 mi
6:55 AM46 °FLight rain. Fog.3 mph100%29.77 "Hg2 mi
6:04 AM46 °FLight rain. Fog.6 mph100%29.78 "Hg2 mi
5:00 AM46 °FRain. Fog.5 mph100%29.78 "Hg3 mi
4:55 AM46 °FLight rain. Fog.7 mph100%29.78 "Hg5 mi
4:00 AM46 °FLight rain. Low clouds.5 mph93%29.79 "Hg7 mi
3:00 AM46 °FRain. Fog.7 mph93%29.82 "Hg6 mi
2:00 AM46 °FLight rain. Low clouds.10 mph93%29.84 "Hg9 mi
1:48 AM46 °FLight rain. Low clouds.10 mph93%29.84 "Hg7 mi
1:00 AM46 °FLight rain. Fog.12 mph93%29.86 "Hg4 mi
12:00 AM46 °FLight rain. Fog.12 mph93%29.90 "Hg4 mi
Weather by CustomWeather, © 2015

See weather overviewHow to use our weather pages